Find Starlink 6144

NORAD ID: 56894 Int'l Des: 2023-083 Owner: SPXS Country: US Constellation: starlink operational
LEOCIRCULAR

現在のビュー

3D地球を読み込み中...

About Starlink 6144

Starlink 6144 (NORAD 56894) is a starlink constellation satellite (v1.5) launched Jun 12, 2023 by SPXS of US. It operates in LEO, CIRCULAR orbit with a mass of 305.00 kg.

Starlink 6144について

説明を読み込み中...

次回通過

Passes for default location (London). Set your location on the main map for personalized predictions.

高度履歴

Loading altitude history...

軌道要素

1 56894U 23083U 26171.23851283 .00001680 00000-0 70569-4 0 9993
2 56894 43.0015 229.4865 0001616 269.9085 90.1581 15.27579842167396
Epoch: Jun 20, 2026 • Age: 11 hours

現在のステータス

高度 485.8 km
速度 7.62 km/s
衛星直下点 -16.20°S, 50.9°E
打ち上げ日 Jun 12, 2023
運用期間 3 years
タイプ internet

技術仕様

分類 Payload
質量 305.00 kg
乾燥質量 290.00 kg
総質量 305.00 kg
長さ 0.20 m
直径 2.80 m
スパン 9.00 m
形状 Box + pan
製造者 SPXS
バスタイプ Starlink
フェーズステータス In Orbit
所有者/国 SPXS/US

Most Searched